Volver al catálogo

STARLINK-30874

ActivoComunicacionesVLEO
NORAD 58227·PAYLOAD·🇺🇸 United States

Lanzado Nov 3, 2023 desde Cape Canaveral Space Force Station

Loading…

Próximos Pases (próximas 24 horas)

TLE

ActualizadoSource: CelesTrak SupGP

Época: Sep 14, 2026, 22:28 UTC

1 58227C 23170X   26257.93659722  .00001222  00000+0  44283-4 0  2570
2 58227  42.9998 205.5875 0001330 256.1922 356.8251 15.27573097    10

Sigue STARLINK-30874 en tiempo real con AllMySat

Download on the App Store